User: anonymous   Login
Location: Valley View Observatory
(41.0081°N, 76.5874°W)
Time: 01:32:58
(UTC-05:00)
Language:

Cosmos 2237 Rocket - Orbit

View from above orbital plane
View from above orbital plane
View from above satellite
View from above satellite

Ground track
Ground track

The orbit data is extracted from the following two-line orbital elements,

1 22566U 93016B   18051.91139345 +.00000131 +00000-0 +92504-4 0  9999
2 22566 071.0044 264.8327 0008605 122.4347 237.7609 14.14954564286444
Epoch (UTC): 20 February 2018 21:52:24
Eccentricity: 0.0008605
inclination: 71.0044°
perigee height: 836 km
apogee height: 848 km
right ascension of ascending node: 264.8327°
argument of perigee: 122.4347°
revolutions per day: 14.14954564
mean anomaly at epoch: 237.7609°
orbit number at epoch: 28644

The dashed part of the orbit path shows where the satellite is in the earth's shadow,  

DLR